Location: Unspecified
(49.2170°N, 0.0000°E)
Time: 21:05:05
(UTC+00:00)

A-11 Canister half - Pass Details

Date: 24 June 2019
Orbit: 1526 x 1683 km, 47.3° (Epoch: 21 July)

Event Time Altitude Azimuth Distance (km) Brightness Sun altitude
Rises 10:18:41 0° 289° (WNW) 4,685 11.2 57.1°
Reaches altitude 10° 10:22:00 10° 281° (W) 3,697 10.8 57.5°
Maximum altitude 10:30:10 36° 219° (SW) 2,237 10.5 58.5°
Drops below altitude 10° 10:38:24 10° 157° (SSE) 3,723 11.7 59.4°
Sets 10:41:47 0° 149° (SSE) 4,722 12.0 59.7°
